Tracking 18851 objects as of 25-Nov-2017
HD Live streaming from Space Station
objects crossing your sky now

FENGYUN 1C DEB

Track FENGYUN 1C DEB now!
10-day predictions


NORAD ID: 31731
Int'l Code: 1999-025CEE
Perigee: 826.5 km
Apogee: 846.8 km
Inclination: 99.3 °
Period: 101.5 minutes
Semi major axis: 7207 km
RCS: 0.0064 m2 (small)
Launch date: May 10, 1999
Source: People's Republic of China (PRC)
Launch site: Taiyaun Space Center, China (TSC)

Note: This is SATELLITE DEBRIS
aabbcc
Your satellite tracking list
Your tracking list is empty




NASA's NSSDC Master Catalog

Two Line Element Set (TLE):
1 31731U 99025CEE 17328.50000669 +.00000950 +00000-0 +48034-3 0  9993
2 31731 099.3392 163.8279 0014124 199.1684 160.8960 14.18770811539788
Source of the keplerian elements: AFSPC